Time,TemperatureF,DewpointF,PressureIn,WindDirection,WindDirectionDegrees,WindSpeedMPH,WindSpeedGustMPH,Humidity,HourlyPrecipIn,Conditions,Clouds,dailyrainin,SoftwareType,DateUTC
2013-11-04 00:23:00,52.0,32.0,-100.00,South,180,8.0,-999.0,47,-99.99,,,-99.99,,2013-11-04 06:23:00,
2013-11-04 00:52:00,51.0,32.0,-100.00,South,180,7.0,-999.0,48,-99.99,,,-99.99,,2013-11-04 06:52:00,
2013-11-04 01:22:00,51.0,32.0,-100.00,South,180,6.0,-999.0,49,-99.99,,,-99.99,,2013-11-04 07:22:00,
2013-11-04 01:52:00,50.0,33.0,-100.00,South,180,6.0,-999.0,51,-99.99,,,-99.99,,2013-11-04 07:52:00,
2013-11-04 02:21:00,50.0,33.0,-100.00,South,180,4.0,-999.0,52,-99.99,,,-99.99,,2013-11-04 08:21:00,
2013-11-04 02:52:00,49.0,34.0,-100.00,South,180,4.0,-999.0,54,-99.99,,,-99.99,,2013-11-04 08:52:00,
2013-11-04 03:21:00,49.0,34.0,-100.00,South,180,4.0,-999.0,56,-99.99,,,-99.99,,2013-11-04 09:21:00,
2013-11-04 03:53:00,50.0,36.0,-100.00,South,180,4.0,-999.0,58,-99.99,,,-99.99,,2013-11-04 09:53:00,
2013-11-04 04:23:00,50.0,36.0,-100.00,South,180,5.0,-999.0,58,-99.99,,,-99.99,,2013-11-04 10:23:00,
2013-11-04 04:52:00,49.0,36.0,-100.00,South,180,5.0,-999.0,61,-99.99,,,-99.99,,2013-11-04 10:52:00,
2013-11-04 05:22:00,48.0,36.0,-100.00,South,180,3.0,-999.0,64,-99.99,,,-99.99,,2013-11-04 11:22:00,
2013-11-04 05:52:00,47.0,37.0,-100.00,South,180,3.0,-999.0,69,-99.99,,,-99.99,,2013-11-04 11:52:00,
2013-11-04 06:22:00,44.0,37.0,-100.00,South,180,2.0,-999.0,75,-99.99,,,-99.99,,2013-11-04 12:22:00,
2013-11-04 06:52:00,43.0,38.0,-100.00,South,180,3.0,-999.0,82,-99.99,,,-99.99,,2013-11-04 12:52:00,
2013-11-04 07:21:00,43.0,38.0,-100.00,South,180,3.0,-999.0,84,-99.99,,,-99.99,,2013-11-04 13:21:00,
2013-11-04 07:52:00,43.0,39.0,-100.00,South,180,2.0,-999.0,85,-99.99,,,-99.99,,2013-11-04 13:52:00,
2013-11-04 08:11:00,44.0,40.0,-100.00,South,180,2.0,-999.0,85,-99.99,,,-99.99,,2013-11-04 14:11:00,
2013-11-04 08:22:00,46.0,41.0,-100.00,SSW,203,2.0,-999.0,82,-99.99,,,-99.99,,2013-11-04 14:22:00,
2013-11-04 08:52:00,48.0,41.0,-100.00,SW,225,2.0,-999.0,78,-99.99,,,-99.99,,2013-11-04 14:52:00,
2013-11-04 09:22:00,49.0,41.0,-100.00,SW,225,3.0,-999.0,73,-99.99,,,-99.99,,2013-11-04 15:22:00,
2013-11-04 09:52:00,51.0,41.0,-100.00,West,270,3.0,-999.0,70,-99.99,,,-99.99,,2013-11-04 15:52:00,
2013-11-04 10:23:00,50.0,40.0,-100.00,WNW,293,2.0,-999.0,68,-99.99,,,-99.99,,2013-11-04 16:23:00,
2013-11-04 10:53:00,52.0,39.0,-100.00,NNW,338,3.0,-999.0,61,-99.99,,,-99.99,,2013-11-04 16:53:00,
2013-11-04 11:22:00,53.0,38.0,-100.00,NNW,338,5.0,-999.0,56,-99.99,,,-99.99,,2013-11-04 17:22:00,
2013-11-04 11:53:00,53.0,-99.9,-100.00,ENE,68,4.0,-999.0,51,-99.99,,,-99.99,,2013-11-04 17:53:00,
2013-11-04 12:23:00,54.0,-99.9,-100.00,NNE,23,5.0,-999.0,46,-99.99,,,-99.99,,2013-11-04 18:23:00,
2013-11-04 12:52:00,55.0,-99.9,-100.00,NNE,23,5.0,-999.0,42,-99.99,,,-99.99,,2013-11-04 18:52:00,
2013-11-04 13:12:00,55.0,-99.9,-100.00,North,0,6.0,-999.0,40,-99.99,,,-99.99,,2013-11-04 19:12:00,
2013-11-04 13:22:00,56.0,-99.9,-100.00,ENE,68,5.0,-999.0,40,-99.99,,,-99.99,,2013-11-04 19:22:00,
2013-11-04 13:52:00,57.0,-99.9,-100.00,NNE,23,5.0,-999.0,39,-99.99,,,-99.99,,2013-11-04 19:52:00,
2013-11-04 14:11:00,56.0,-99.9,-100.00,NNE,23,6.0,-999.0,39,-99.99,,,-99.99,,2013-11-04 20:11:00,
2013-11-04 14:22:00,56.0,-99.9,-100.00,NNE,23,4.0,-999.0,38,-99.99,,,-99.99,,2013-11-04 20:22:00,
2013-11-04 14:53:00,56.0,-99.9,-100.00,NE,45,3.0,-999.0,38,-99.99,,,-99.99,,2013-11-04 20:53:00,
2013-11-04 15:22:00,56.0,-99.9,-100.00,NNE,23,4.0,-999.0,39,-99.99,,,-99.99,,2013-11-04 21:22:00,
2013-11-04 15:54:00,55.0,-99.9,-100.00,NNE,23,3.0,-999.0,39,-99.99,,,-99.99,,2013-11-04 21:54:00,
2013-11-04 16:23:00,54.0,-99.9,-100.00,NE,45,3.0,-999.0,40,-99.99,,,-99.99,,2013-11-04 22:23:00,
2013-11-04 16:53:00,53.0,-99.9,-100.00,NE,45,3.0,-999.0,42,-99.99,,,-99.99,,2013-11-04 22:53:00,
2013-11-04 17:23:00,51.0,-99.9,-100.00,NE,45,2.0,-999.0,45,-99.99,,,-99.99,,2013-11-04 23:23:00,
2013-11-04 17:43:00,49.0,-99.9,-100.00,ENE,68,2.0,-999.0,49,-99.99,,,-99.99,,2013-11-04 23:43:00,
2013-11-04 17:53:00,47.0,-99.9,-100.00,NE,45,2.0,-999.0,52,-99.99,,,-99.99,,2013-11-04 23:53:00,
2013-11-04 19:21:00,42.0,32.0,-100.00,ENE,68,2.0,-999.0,69,-99.99,,,-99.99,,2013-11-05 01:21:00,
2013-11-04 19:52:00,41.0,33.0,-100.00,ENE,68,2.0,-999.0,71,-99.99,,,-99.99,,2013-11-05 01:52:00,
2013-11-04 20:22:00,40.0,33.0,-100.00,NE,45,2.0,-999.0,76,-99.99,,,-99.99,,2013-11-05 02:22:00,
2013-11-04 20:52:00,40.0,34.0,-100.00,NE,45,1.0,-999.0,78,-99.99,,,-99.99,,2013-11-05 02:52:00,
2013-11-04 21:22:00,42.0,35.0,-100.00,NE,45,1.0,-999.0,77,-99.99,,,-99.99,,2013-11-05 03:22:00,
2013-11-04 21:54:00,42.0,36.0,-100.00,NNE,23,1.0,-999.0,79,-99.99,,,-99.99,,2013-11-05 03:54:00,
2013-11-04 22:23:00,39.0,35.0,-100.00,NNE,23,1.0,-999.0,85,-99.99,,,-99.99,,2013-11-05 04:23:00,
2013-11-04 22:53:00,38.0,35.0,-100.00,ENE,68,1.0,-999.0,86,-99.99,,,-99.99,,2013-11-05 04:53:00,
2013-11-04 23:23:00,38.0,34.0,-100.00,NNE,23,1.0,-999.0,86,-99.99,,,-99.99,,2013-11-05 05:23:00,
2013-11-04 23:54:00,38.0,35.0,-100.00,NE,45,1.0,-999.0,88,-99.99,,,-99.99,,2013-11-05 05:54:00,